�N����,����,�~����,�C��,���x,�C��,����,���ϕ���,�ő�u�ԕ���,�ő厞����,���˗�,�I�_���x,�n�����x,�ő啗���N��,DTYPE
"17/11/25","00:10",0.0,1.9,93.3,1015.6,295.5,1.6,2.4,324.3,0.00,1.0,7.6,"00:01:12",1
"17/11/25","00:20",0.0,1.9,91.9,1015.9,297.1,2.0,3.1,320.4,0.00,0.8,7.6,"00:12:56",1
"17/11/25","00:30",0.0,1.5,92.9,1015.6,297.0,1.5,2.2,313.0,0.00,0.5,7.7,"00:24:24",1
"17/11/25","00:40",0.0,1.3,93.6,1015.6,305.1,1.8,2.5,319.6,0.00,0.4,7.6,"00:34:40",1
"17/11/25","00:50",0.0,0.8,94.2,1015.6,298.7,1.1,2.0,329.4,0.00,0.0,7.4,"00:48:32",1
"17/11/25","01:00",0.0,0.9,95.3,1015.6,315.7,1.3,2.0,318.5,0.00,0.3,7.5,"00:57:04",1
"17/11/25","01:10",0.0,0.7,96.1,1015.6,288.2,1.5,2.5,314.9,0.00,0.2,7.5,"01:03:52",1
"17/11/25","01:20",0.0,1.2,97.2,1016.1,314.9,1.5,2.2,320.5,0.00,0.8,7.7,"01:16:56",1
"17/11/25","01:30",0.0,1.1,95.8,1016.1,310.4,2.0,2.6,314.3,0.00,0.5,7.3,"01:23:28",1
"17/11/25","01:40",0.0,1.0,97.0,1016.1,297.1,1.5,1.9,322.6,0.00,0.6,7.3,"01:30:08",1
"17/11/25","01:50",0.0,1.2,96.6,1015.9,291.1,1.7,2.9,320.2,0.00,0.8,7.3,"01:40:24",1
"17/11/25","02:00",0.0,1.5,97.4,1016.1,271.8,1.5,1.8,256.0,0.00,1.2,7.3,"01:54:16",1
"17/11/25","02:10",0.0,1.9,97.0,1016.6,273.8,1.6,1.8,296.2,0.00,1.5,7.4,"02:01:44",1
"17/11/25","02:20",0.0,1.8,95.9,1016.4,288.2,1.5,2.2,306.3,0.00,1.3,7.3,"02:14:24",1
"17/11/25","02:30",0.0,1.3,95.4,1016.4,309.3,2.1,2.7,319.6,0.00,0.7,7.4,"02:25:44",1
"17/11/25","02:40",0.0,0.9,96.4,1016.8,292.2,1.3,2.0,321.7,0.00,0.4,7.4,"02:36:40",1
"17/11/25","02:50",0.0,0.9,97.3,1016.6,287.7,1.2,1.8,292.9,0.00,0.6,7.3,"02:41:12",1
"17/11/25","03:00",0.0,1.1,97.4,1016.8,315.2,2.2,2.8,312.9,0.00,0.8,7.4,"02:55:28",1
"17/11/25","03:10",0.0,1.0,97.8,1016.6,287.2,1.6,2.5,321.3,0.00,0.7,7.1,"03:06:32",1
"17/11/25","03:20",0.0,1.1,97.7,1016.4,298.2,1.5,2.9,325.7,0.00,0.8,7.2,"03:17:12",1
"17/11/25","03:30",0.0,1.0,97.9,1016.6,294.9,1.3,3.1,311.2,0.00,0.7,7.1,"03:29:52",1
"17/11/25","03:40",0.0,0.7,97.8,1017.1,295.1,1.2,2.9,324.9,0.00,0.4,7.1,"03:30:16",1
"17/11/25","03:50",0.0,0.8,98.6,1016.8,287.8,1.5,3.1,326.2,0.00,0.6,7.3,"03:43:36",1
"17/11/25","04:00",0.0,1.1,97.1,1017.1,306.2,1.8,2.7,314.8,0.00,0.7,7.2,"03:59:28",1
"17/11/25","04:10",0.0,0.8,98.8,1017.1,286.6,0.8,1.9,330.1,0.00,0.7,7.0,"04:00:16",1
"17/11/25","04:20",0.0,0.8,97.7,1017.3,333.6,1.5,2.9,324.1,0.00,0.5,7.1,"04:19:44",1
"17/11/25","04:30",0.0,0.6,98.7,1017.3,329.4,1.6,3.2,318.1,0.00,0.5,7.0,"04:20:40",1
"17/11/25","04:40",0.0,0.7,98.3,1017.3,294.1,1.1,1.8,319.4,0.00,0.5,7.0,"04:35:52",1
"17/11/25","04:50",0.0,0.9,98.3,1017.8,303.6,1.6,2.5,323.6,0.00,0.7,7.0,"04:43:36",1
"17/11/25","05:00",0.0,0.9,97.6,1017.8,297.6,1.3,2.1,327.9,0.00,0.6,6.9,"04:55:28",1
"17/11/25","05:10",0.0,1.2,99.0,1018.0,316.3,1.6,2.7,306.2,0.00,1.1,6.8,"05:04:08",1
"17/11/25","05:20",0.0,1.3,98.1,1018.2,310.5,2.0,2.7,319.7,0.00,1.1,7.0,"05:10:24",1
"17/11/25","05:30",0.0,1.0,97.3,1018.0,306.0,1.2,2.1,308.2,0.00,0.7,6.9,"05:20:40",1
"17/11/25","05:40",0.0,1.3,98.4,1018.0,324.2,1.2,2.7,335.6,0.00,1.1,6.7,"05:35:52",1
"17/11/25","05:50",0.0,1.0,97.4,1018.5,279.6,1.3,2.9,318.2,0.00,0.7,6.9,"05:40:40",1
"17/11/25","06:00",0.0,0.6,98.8,1018.5,294.4,1.0,2.1,311.5,0.00,0.5,6.9,"05:53:52",1
"17/11/25","06:10",0.0,0.6,97.4,1018.5,317.7,1.3,2.1,322.7,0.00,0.3,6.8,"06:00:02",1
"17/11/25","06:20",0.0,0.3,98.9,1018.5,309.5,0.8,2.0,305.4,0.00,0.2,6.7,"06:14:32",1
"17/11/25","06:30",0.0,0.3,98.3,1019.0,292.9,1.0,1.9,318.8,0.00,0.1,6.9,"06:29:36",1
"17/11/25","06:40",0.0,0.2,98.4,1018.7,309.8,1.1,2.2,322.5,0.00,0.0,6.9,"06:32:16",1
"17/11/25","06:50",0.0,0.4,97.9,1019.0,320.1,1.1,1.8,324.1,0.00,0.1,6.8,"06:42:48",1
"17/11/25","07:00",0.0,0.3,99.5,1019.0,313.9,1.3,1.9,322.6,0.00,0.3,6.9,"06:52:16",1
"17/11/25","07:10",0.0,0.4,98.5,1019.0,295.8,1.1,2.0,318.5,0.00,0.2,6.7,"07:05:20",1
"17/11/25","07:20",0.0,1.1,99.0,1019.9,283.4,1.2,1.4,280.6,0.00,1.0,6.7,"07:12:48",1
"17/11/25","07:30",0.0,1.7,99.0,1019.7,289.2,0.5,1.6,314.8,0.00,1.6,6.8,"07:20:40",1
"17/11/25","07:40",0.0,1.8,98.4,1019.7,283.3,1.2,1.9,294.5,0.00,1.6,6.5,"07:32:24",1
"17/11/25","07:50",0.0,2.7,97.7,1020.4,270.0,0.8,2.4,314.7,0.01,2.4,6.7,"07:45:36",1
"17/11/25","08:00",0.0,3.4,97.1,1020.4,266.4,1.0,1.3,264.7,0.02,3.0,7.0,"07:54:00",1
"17/11/25","08:10",0.0,4.2,92.6,1020.8,311.2,0.6,1.1,298.7,0.04,3.1,6.7,"08:06:40",1
"17/11/25","08:20",0.0,5.0,89.9,1021.1,259.6,0.8,1.6,216.9,0.05,3.5,6.7,"08:19:20",1
"17/11/25","08:30",0.0,5.5,86.7,1021.5,236.7,1.1,2.1,225.7,0.07,3.5,7.0,"08:24:16",1
"17/11/25","08:40",0.0,6.0,83.8,1021.5,244.2,1.0,2.1,244.3,0.08,3.5,7.0,"08:39:28",1
"17/11/25","08:50",0.0,6.4,83.0,1021.5,237.9,1.2,2.8,240.4,0.10,3.8,7.2,"08:45:12",1
"17/11/25","09:00",0.0,7.2,80.2,1021.8,258.4,1.0,2.4,234.7,0.16,4.1,7.1,"08:51:52",1
"17/11/25","09:10",0.0,7.4,77.4,1022.5,260.2,0.8,1.8,238.5,0.18,3.8,7.3,"09:05:44",1
"17/11/25","09:20",0.0,8.1,74.2,1022.7,242.2,0.7,1.6,241.8,0.23,3.8,7.4,"09:12:56",1
"17/11/25","09:30",0.0,8.4,75.1,1023.0,215.1,0.6,1.3,212.6,0.22,4.3,7.6,"09:29:36",1
"17/11/25","09:40",0.0,8.6,70.8,1022.7,171.5,0.7,1.8,125.1,0.26,3.6,8.0,"09:38:48",1
"17/11/25","09:50",0.0,9.5,68.4,1023.0,146.7,0.7,1.7,111.1,0.27,4.0,8.0,"09:43:44",1
"17/11/25","10:00",0.0,9.8,62.8,1023.2,101.7,1.0,2.1,98.9,0.30,3.1,8.2,"09:59:28",1
"17/11/25","10:10",0.0,9.8,59.3,1023.0,345.9,1.0,1.8,359.2,0.27,2.3,8.3,"10:03:52",1
"17/11/25","10:20",0.0,10.2,58.9,1023.0,243.6,0.6,1.6,236.4,0.23,2.6,8.6,"10:14:00",1
"17/11/25","10:30",0.0,10.6,56.0,1023.0,266.8,1.5,2.9,236.3,0.23,2.2,8.7,"10:28:16",1
"17/11/25","10:40",0.0,11.0,53.2,1023.0,285.7,1.7,3.1,267.5,0.35,1.9,8.8,"10:36:56",1
"17/11/25","10:50",0.0,11.2,54.2,1022.7,288.7,2.1,4.5,232.7,0.37,2.3,8.7,"10:41:20",1
"17/11/25","11:00",0.0,11.3,52.5,1022.5,286.3,2.2,4.1,316.1,0.36,2.0,9.1,"10:54:00",1
"17/11/25","11:10",0.0,11.6,55.8,1022.5,265.9,1.6,3.2,242.8,0.33,3.1,9.3,"11:08:32",1
"17/11/25","11:20",0.0,11.5,53.4,1022.3,283.5,2.0,4.2,321.6,0.34,2.4,9.5,"11:17:36",1
"17/11/25","11:30",0.0,11.6,53.2,1022.0,278.0,1.6,3.6,313.8,0.33,2.4,9.7,"11:20:16",1
"17/11/25","11:40",0.0,11.7,53.2,1022.3,268.4,1.7,3.5,333.8,0.32,2.5,9.9,"11:32:00",1
"17/11/25","11:50",0.0,12.1,53.1,1021.8,251.2,2.1,4.2,225.4,0.39,2.9,10.0,"11:43:04",1
"17/11/25","12:00",0.0,12.0,53.3,1021.8,259.9,2.1,3.9,234.6,0.42,2.8,10.2,"11:51:44",1
"17/11/25","12:10",0.0,12.4,51.4,1021.5,255.4,1.6,4.9,216.6,0.38,2.7,10.3,"12:09:04",1
"17/11/25","12:20",0.0,12.8,49.1,1021.3,303.5,1.7,3.5,338.0,0.40,2.4,10.4,"12:11:52",1
"17/11/25","12:30",0.0,12.4,50.5,1020.8,303.3,2.0,4.3,201.0,0.29,2.5,10.5,"12:28:40",1
"17/11/25","12:40",0.0,12.4,51.7,1020.6,246.1,2.6,7.2,227.9,0.25,2.8,10.4,"12:33:52",1
"17/11/25","12:50",0.0,12.5,50.3,1020.8,272.9,2.0,3.9,317.9,0.30,2.5,10.7,"12:43:04",1
"17/11/25","13:00",0.0,13.1,48.4,1020.6,263.8,1.7,3.4,234.2,0.29,2.5,11.0,"12:50:08",1
"17/11/25","13:10",0.0,12.7,48.1,1020.4,270.2,1.7,3.4,251.8,0.29,2.0,11.0,"13:00:02",1
"17/11/25","13:20",0.0,12.2,45.6,1020.6,275.8,1.7,3.6,243.4,0.19,0.8,10.9,"13:13:20",1
"17/11/25","13:30",0.0,12.3,46.0,1020.4,288.9,1.6,3.1,301.6,0.21,1.1,11.1,"13:25:20",1
"17/11/25","13:40",0.0,12.3,48.1,1020.6,261.8,1.7,3.7,236.0,0.18,1.7,11.0,"13:32:48",1
"17/11/25","13:50",0.0,12.6,49.7,1020.1,317.2,1.2,2.4,337.3,0.17,2.4,11.2,"13:43:20",1
"17/11/25","14:00",0.0,12.9,49.1,1020.4,339.0,1.6,4.4,325.9,0.23,2.5,10.9,"13:53:04",1
"17/11/25","14:10",0.0,12.5,50.7,1020.4,349.9,1.6,3.5,338.8,0.20,2.6,11.2,"14:07:44",1
"17/11/25","14:20",0.0,12.3,48.9,1020.4,4.0,1.5,3.4,12.5,0.18,1.9,11.3,"14:17:12",1
"17/11/25","14:30",0.0,11.9,47.2,1020.4,358.1,1.6,3.3,339.2,0.14,1.1,11.2,"14:23:52",1
"17/11/25","14:40",0.0,11.9,48.7,1020.6,345.2,1.6,2.9,323.6,0.08,1.5,11.1,"14:32:24",1
"17/11/25","14:50",0.0,11.6,50.5,1020.1,336.5,1.6,3.6,1.0,0.08,1.7,11.1,"14:49:12",1
"17/11/25","15:00",0.0,12.1,50.5,1020.4,345.3,1.5,2.6,334.6,0.12,2.2,11.2,"14:55:28",1
"17/11/25","15:10",0.0,12.1,49.9,1020.1,331.2,1.5,3.2,332.8,0.12,2.0,11.2,"15:04:00",1
"17/11/25","15:20",0.0,11.6,49.2,1020.1,330.6,1.1,2.5,338.6,0.08,1.4,11.0,"15:15:20",1
"17/11/25","15:30",0.0,11.4,49.6,1020.1,266.0,0.7,1.2,305.8,0.07,1.3,10.9,"15:22:16",1
"17/11/25","15:40",0.0,11.5,49.2,1020.1,154.5,0.3,0.9,119.5,0.05,1.3,11.1,"15:34:08",1
"17/11/25","15:50",0.0,11.7,48.3,1020.4,308.4,0.6,1.2,23.8,0.06,1.2,10.7,"15:45:28",1
"17/11/25","16:00",0.0,11.4,53.4,1020.4,269.7,1.2,1.7,266.0,0.03,2.3,11.0,"15:57:04",1
"17/11/25","16:10",0.0,11.0,56.3,1020.1,258.6,1.5,2.2,252.8,0.02,2.7,10.9,"16:09:40",1
"17/11/25","16:20",0.0,10.4,56.8,1020.4,284.6,1.7,2.9,322.8,0.00,2.2,10.9,"16:19:28",1
"17/11/25","16:30",0.0,10.1,61.0,1020.4,311.5,1.8,2.9,313.1,0.00,3.0,10.7,"16:27:14",1
"17/11/25","16:40",0.0,9.3,65.2,1020.6,315.5,2.0,2.8,322.3,0.00,3.1,10.7,"16:34:58",1
"17/11/25","16:50",0.0,8.6,69.4,1020.6,319.6,1.6,1.9,327.7,0.00,3.4,10.8,"16:40:08",1
"17/11/25","17:00",0.0,8.1,72.2,1020.4,325.2,1.3,2.4,329.1,0.00,3.4,10.6,"16:56:40",1
"17/11/25","17:10",0.0,7.5,73.8,1020.4,323.6,2.0,2.8,326.3,0.00,3.2,10.3,"17:07:44",1
"17/11/25","17:20",0.0,7.0,76.9,1020.8,321.4,1.7,2.6,318.8,0.00,3.3,10.2,"17:19:28",1
"17/11/25","17:30",0.0,6.7,78.4,1020.4,325.4,1.7,2.8,327.1,0.00,3.3,10.2,"17:20:32",1
"17/11/25","17:40",0.0,6.0,79.7,1020.4,301.5,0.8,2.0,308.4,0.00,2.8,10.2,"17:30:02",1
"17/11/25","17:50",0.0,5.3,84.1,1020.4,303.3,1.5,2.1,319.3,0.00,2.9,9.8,"17:41:12",1
"17/11/25","18:00",0.0,4.8,85.9,1020.6,306.0,1.6,1.9,318.7,0.00,2.7,9.9,"17:55:30",1
"17/11/25","18:10",0.0,4.8,87.2,1020.4,307.4,1.8,2.5,315.0,0.00,2.9,9.9,"18:08:36",1
"17/11/25","18:20",0.0,4.9,88.4,1020.4,283.0,2.0,2.6,272.6,0.00,3.2,9.6,"18:19:16",1
"17/11/25","18:30",0.0,5.3,87.7,1020.8,306.4,2.3,3.3,320.6,0.00,3.5,9.5,"18:26:32",1
"17/11/25","18:40",0.0,5.2,85.8,1020.8,317.5,1.8,2.5,323.1,0.00,3.1,9.5,"18:32:08",1
"17/11/25","18:50",0.0,5.0,87.3,1021.1,303.5,1.6,2.7,333.8,0.00,3.1,9.4,"18:47:42",1
"17/11/25","19:00",0.0,5.1,86.5,1020.8,322.5,1.8,2.8,320.0,0.00,3.1,9.4,"18:57:18",1
"17/11/25","19:10",0.0,4.5,86.9,1020.8,305.4,2.0,2.9,314.4,0.00,2.6,9.4,"19:03:40",1
"17/11/25","19:20",0.0,4.3,88.5,1020.8,296.5,1.3,2.8,327.3,0.00,2.6,9.1,"19:13:54",1
"17/11/25","19:30",0.0,4.1,89.6,1020.8,291.1,1.1,2.7,322.3,0.00,2.6,9.2,"19:25:08",1
"17/11/25","19:40",0.0,4.0,90.0,1020.8,282.5,1.0,2.2,312.9,0.00,2.6,8.8,"19:31:04",1
"17/11/25","19:50",0.0,3.9,91.1,1020.6,280.9,1.5,2.0,306.2,0.00,2.6,9.0,"19:45:30",1
"17/11/25","20:00",0.0,3.7,90.6,1020.6,306.8,1.5,2.8,317.5,0.00,2.3,8.9,"19:54:28",1
"17/11/25","20:10",0.0,3.3,91.2,1020.8,293.3,1.2,2.2,319.3,0.00,2.0,8.8,"20:06:08",1
"17/11/25","20:20",0.0,3.3,92.5,1021.1,317.3,1.6,2.0,313.1,0.00,2.2,8.8,"20:18:24",1
"17/11/25","20:30",0.0,2.8,92.6,1020.8,286.5,1.5,2.7,324.6,0.00,1.8,8.4,"20:27:44",1
"17/11/25","20:40",0.0,2.7,94.5,1020.6,298.7,1.1,2.5,317.3,0.00,1.9,8.7,"20:30:16",1
"17/11/25","20:50",0.0,2.7,95.1,1020.6,281.2,1.7,2.2,288.1,0.00,2.0,8.7,"20:48:40",1
"17/11/25","21:00",0.0,3.0,94.3,1020.8,289.8,1.6,3.4,315.6,0.00,2.2,8.5,"20:53:44",1
"17/11/25","21:10",0.0,3.1,94.9,1020.8,302.2,1.5,2.7,319.6,0.00,2.4,8.7,"21:05:12",1
"17/11/25","21:20",0.0,2.9,94.1,1020.8,311.4,2.0,3.1,319.8,0.00,2.1,8.2,"21:18:32",1
"17/11/25","21:30",0.0,2.3,94.5,1020.8,291.5,1.6,2.2,299.2,0.00,1.5,8.5,"21:20:32",1
"17/11/25","21:40",0.0,2.2,95.6,1020.4,293.1,1.6,1.8,309.1,0.00,1.6,8.2,"21:32:00",1
"17/11/25","21:50",0.0,2.1,96.4,1021.1,289.4,1.3,1.7,276.6,0.00,1.6,8.2,"21:42:24",1
"17/11/25","22:00",0.0,2.3,96.7,1020.8,305.2,2.1,2.7,313.9,0.00,1.9,8.2,"21:54:48",1
"17/11/25","22:10",0.0,2.2,96.5,1020.8,275.3,1.2,1.6,287.3,0.00,1.7,8.2,"22:07:20",1
"17/11/25","22:20",0.0,2.1,96.2,1020.6,300.6,2.1,3.2,319.8,0.00,1.6,8.2,"22:19:28",1
"17/11/25","22:30",0.0,2.0,96.6,1020.8,299.2,1.6,3.1,313.8,0.00,1.6,8.2,"22:20:08",1
"17/11/25","22:40",0.0,2.1,97.9,1020.6,289.3,1.7,2.8,315.6,0.00,1.8,8.1,"22:38:32",1
"17/11/25","22:50",0.0,2.5,97.7,1020.6,290.2,1.8,3.2,314.8,0.00,2.2,7.9,"22:47:36",1
"17/11/25","23:00",0.0,2.5,96.8,1020.4,286.8,1.7,2.5,310.5,0.00,2.1,8.0,"22:58:56",1
"17/11/25","23:10",0.0,2.2,96.6,1020.6,307.8,2.2,2.9,316.6,0.00,1.8,8.1,"23:02:40",1
"17/11/25","23:20",0.0,1.8,96.7,1020.6,289.9,1.3,2.0,303.6,0.00,1.4,8.0,"23:10:24",1
"17/11/25","23:30",0.0,1.5,97.2,1020.4,291.7,1.6,2.4,311.6,0.00,1.1,7.8,"23:23:44",1
"17/11/25","23:40",0.0,1.6,97.9,1020.6,289.3,1.2,1.6,290.0,0.00,1.3,7.7,"23:30:24",1
"17/11/25","23:50",0.0,1.6,97.7,1021.1,310.3,2.2,2.9,324.2,0.00,1.3,7.7,"23:48:24",1
"17/11/25","24:00",0.0,1.4,97.9,1020.4,294.6,1.7,2.6,321.5,0.00,1.1,7.7,"23:52:32",1
